• In Uzbekistan
  • List of Countries
  • For 7 days
  • Water Temperature
  • Satellite Maps
  • Weather Map
  • Weather Widgets
  • user-avatar
    Login

    Hourly Weather Ganja

    Today, 24 October, Wednesday

    Time Temperature Precipitation Wind Pressure Humidity
    00:00 +18°C° 0 mm 1 mps 725 mmHg 52%
    01:00 +16°C° 0 mm 1 mps 725 mmHg 53%
    02:00 +16°C° 0 mm 1 mps 725 mmHg 53%
    03:00 +16°C° 0 mm 1 mps 725 mmHg 54%
    04:00 +15°C° 0 mm 2 mps 724 mmHg 54%
    05:00 +15°C° 0 mm 2 mps 724 mmHg 55%
    06:00 +15°C° 0 mm 2 mps 724 mmHg 55%
    07:00 +17°C° 0 mm 2 mps 724 mmHg 51%
    08:00 +18°C° 0 mm 2 mps 724 mmHg 47%
    09:00 +20°C° 0 mm 2 mps 723 mmHg 42%
    10:00 +20°C° 0.2 mm 2 mps 723 mmHg 42%
    11:00 +21°C° 0.2 mm 2 mps 722 mmHg 43%
    12:00 +21°C° 0.2 mm 2 mps 722 mmHg 43%
    13:00 +23°C° 0 mm 2 mps 721 mmHg 41%
    14:00 +23°C° 0 mm 2 mps 721 mmHg 39%
    15:00 +24°C° 0 mm 2 mps 720 mmHg 37%
    16:00 +23°C° 0 mm 2 mps 720 mmHg 40%
    17:00 +20°C° 0 mm 2 mps 720 mmHg 43%
    18:00 +19°C° 0 mm 2 mps 719 mmHg 46%
    19:00 +19°C° 0 mm 2 mps 719 mmHg 46%
    20:00 +19°C° 0 mm 2 mps 719 mmHg 47%
    21:00 +19°C° 0 mm 2 mps 719 mmHg 47%
    22:00 +19°C° 0 mm 2 mps 719 mmHg 49%
    23:00 +18°C° 0 mm 2 mps 719 mmHg 50%

    Tomorrow, 25 October, Thursday

    Time Temperature Precipitation Wind Pressure Humidity
    00:00 +18°C° 0 mm 2 mps 719 mmHg 52%
    01:00 +18°C° 0 mm 3 mps 718 mmHg 53%
    02:00 +17°C° 0 mm 3 mps 718 mmHg 54%
    03:00 +17°C° 0 mm 3 mps 718 mmHg 55%
    04:00 +17°C° 0 mm 3 mps 718 mmHg 56%
    05:00 +17°C° 0 mm 3 mps 717 mmHg 57%
    06:00 +17°C° 0 mm 3 mps 717 mmHg 57%
    07:00 +18°C° 0 mm 3 mps 717 mmHg 51%
    08:00 +20°C° 0 mm 3 mps 717 mmHg 46%
    09:00 +22°C° 0 mm 3 mps 717 mmHg 40%
    10:00 +23°C° 0 mm 4 mps 716 mmHg 37%
    11:00 +26°C° 0 mm 4 mps 715 mmHg 34%
    12:00 +27°C° 0 mm 5 mps 715 mmHg 31%
    13:00 +27°C° 0 mm 5 mps 714 mmHg 30%
    14:00 +27°C° 0 mm 5 mps 714 mmHg 30%
    15:00 +28°C° 0 mm 5 mps 713 mmHg 30%
    16:00 +26°C° 0 mm 4 mps 713 mmHg 33%
    17:00 +24°C° 0 mm 3 mps 713 mmHg 37%
    18:00 +23°C° 0 mm 2 mps 713 mmHg 41%
    19:00 +21°C° 0 mm 2 mps 713 mmHg 42%
    20:00 +21°C° 0 mm 2 mps 713 mmHg 43%
    21:00 +20°C° 0 mm 2 mps 714 mmHg 44%
    22:00 +20°C° 0 mm 3 mps 714 mmHg 46%
    23:00 +19°C° 0 mm 3 mps 714 mmHg 49%

    Day after tomorrow, 26 October, Friday

    Time Temperature Precipitation Wind Pressure Humidity
    00:00 +19°C° 0 mm 3 mps 714 mmHg 52%
    01:00 +18°C° 0.2 mm 4 mps 714 mmHg 56%
    02:00 +16°C° 0.2 mm 5 mps 714 mmHg 60%
    03:00 +15°C° 0.2 mm 5 mps 714 mmHg 63%
    04:00 +15°C° 1.5 mm 5 mps 715 mmHg 67%
    05:00 +14°C° 1.5 mm 6 mps 715 mmHg 70%
    06:00 +13°C° 1.5 mm 6 mps 716 mmHg 73%
    07:00 +13°C° 0.5 mm 6 mps 717 mmHg 70%
    08:00 +13°C° 0.5 mm 5 mps 717 mmHg 67%
    09:00 +13°C° 0.5 mm 5 mps 718 mmHg 63%
    10:00 +13°C° 0.7 mm 6 mps 718 mmHg 63%
    11:00 +13°C° 0.7 mm 6 mps 719 mmHg 63%
    12:00 +11°C° 0.7 mm 6 mps 719 mmHg 62%
    13:00 +11°C° 1.4 mm 6 mps 719 mmHg 65%
    14:00 +12°C° 1.4 mm 5 mps 719 mmHg 67%
    15:00 +10°C° 1.4 mm 5 mps 720 mmHg 70%
    16:00 +12°C° 0.8 mm 5 mps 721 mmHg 68%
    17:00 +12°C° 0.8 mm 4 mps 722 mmHg 66%
    18:00 +12°C° 0.8 mm 4 mps 723 mmHg 65%
    19:00 +12°C° 0.4 mm 4 mps 723 mmHg 64%
    20:00 +12°C° 0.4 mm 4 mps 724 mmHg 63%
    21:00 +12°C° 0.4 mm 4 mps 725 mmHg 62%
    22:00 +11°C° 0 mm 4 mps 725 mmHg 61%
    23:00 +11°C° 0 mm 4 mps 726 mmHg 61%

    27 October, Saturday

    Time Temperature Precipitation Wind Pressure Humidity
    00:00 +11°C° 0 mm 4 mps 726 mmHg 61%
    01:00 +10°C° 0 mm 4 mps 727 mmHg 61%
    02:00 +10°C° 0 mm 4 mps 727 mmHg 61%
    03:00 +8°C° 0 mm 4 mps 728 mmHg 61%
    04:00 +8°C° 0 mm 4 mps 728 mmHg 60%
    05:00 +8°C° 0 mm 4 mps 729 mmHg 60%
    06:00 +8°C° 0 mm 4 mps 729 mmHg 60%
    07:00 +10°C° 0 mm 4 mps 730 mmHg 58%
    08:00 +12°C° 0 mm 4 mps 730 mmHg 56%
    09:00 +13°C° 0 mm 4 mps 731 mmHg 55%
    10:00 +14°C° 0 mm 3 mps 731 mmHg 53%
    11:00 +16°C° 0 mm 3 mps 731 mmHg 51%
    12:00 +17°C° 0 mm 3 mps 731 mmHg 50%
    13:00 +17°C° 0 mm 2 mps 731 mmHg 49%
    14:00 +17°C° 0 mm 2 mps 731 mmHg 49%
    15:00 +19°C° 0 mm 1 mps 731 mmHg 49%
    16:00 +18°C° 0 mm 1 mps 731 mmHg 51%
    17:00 +15°C° 0 mm 2 mps 732 mmHg 52%
    18:00 +14°C° 0 mm 2 mps 732 mmHg 54%
    19:00 +14°C° 0 mm 2 mps 733 mmHg 54%
    20:00 +13°C° 0 mm 2 mps 733 mmHg 55%
    21:00 +13°C° 0 mm 2 mps 733 mmHg 55%
    22:00 +13°C° 0 mm 2 mps 733 mmHg 56%
    23:00 +12°C° 0 mm 2 mps 733 mmHg 57%

    28 October, Sunday

    Time Temperature Precipitation Wind Pressure Humidity
    00:00 +12°C° 0 mm 2 mps 733 mmHg 58%
    01:00 +11°C° 0 mm 1 mps 733 mmHg 58%
    02:00 +11°C° 0 mm 1 mps 733 mmHg 57%
    03:00 +11°C° 0 mm 1 mps 733 mmHg 57%
    04:00 +11°C° 0 mm 1 mps 733 mmHg 55%
    05:00 +10°C° 0 mm 2 mps 733 mmHg 54%
    06:00 +10°C° 0 mm 2 mps 733 mmHg 52%
    07:00 +12°C° 0 mm 2 mps 733 mmHg 50%
    08:00 +13°C° 0 mm 1 mps 733 mmHg 48%
    09:00 +15°C° 0 mm 1 mps 733 mmHg 46%
    10:00 +16°C° 0 mm 1 mps 733 mmHg 44%
    11:00 +18°C° 0 mm 1 mps 733 mmHg 43%
    12:00 +19°C° 0 mm 1 mps 733 mmHg 42%
    13:00 +19°C° 0 mm 1 mps 732 mmHg 41%
    14:00 +20°C° 0 mm 1 mps 732 mmHg 41%
    15:00 +20°C° 0 mm 1 mps 732 mmHg 41%
    16:00 +19°C° 0 mm 1 mps 732 mmHg 43%
    17:00 +18°C° 0 mm 1 mps 733 mmHg 46%
    18:00 +15°C° 0 mm 1 mps 733 mmHg 48%
    19:00 +15°C° 0 mm 1 mps 733 mmHg 48%
    20:00 +15°C° 0 mm 1 mps 733 mmHg 48%
    21:00 +14°C° 0 mm 2 mps 734 mmHg 48%
    22:00 +14°C° 0 mm 1 mps 734 mmHg 49%
    23:00 +14°C° 0 mm 1 mps 734 mmHg 49%

    29 October, Monday

    Time Temperature Precipitation Wind Pressure Humidity
    00:00 +13°C° 0 mm 1 mps 734 mmHg 50%
    01:00 +13°C° 0 mm 1 mps 734 mmHg 50%
    02:00 +13°C° 0 mm 1 mps 734 mmHg 51%
    03:00 +12°C° 0 mm 1 mps 733 mmHg 51%
    04:00 +12°C° 0 mm 1 mps 734 mmHg 51%
    05:00 +12°C° 0 mm 1 mps 734 mmHg 51%
    06:00 +12°C° 0 mm 1 mps 734 mmHg 51%
    07:00 +14°C° 0 mm 1 mps 734 mmHg 48%
    08:00 +15°C° 0 mm 1 mps 734 mmHg 45%
    09:00 +18°C° 0 mm 1 mps 734 mmHg 42%
    10:00 +19°C° 0 mm 1 mps 734 mmHg 40%
    11:00 +20°C° 0 mm 1 mps 734 mmHg 39%
    12:00 +21°C° 0 mm 1 mps 734 mmHg 37%
    13:00 +21°C° 0 mm 1 mps 733 mmHg 37%
    14:00 +21°C° 0 mm 1 mps 733 mmHg 37%
    15:00 +21°C° 0 mm 1 mps 733 mmHg 37%
    16:00 +20°C° 0 mm 1 mps 733 mmHg 40%
    17:00 +19°C° 0 mm 1 mps 733 mmHg 43%
    18:00 +16°C° 0 mm 1 mps 733 mmHg 47%
    19:00 +16°C° 0 mm 1 mps 733 mmHg 47%
    20:00 +16°C° 0 mm 1 mps 733 mmHg 48%
    21:00 +15°C° 0 mm 1 mps 733 mmHg 48%
    22:00 +15°C° 0 mm 1 mps 733 mmHg 49%
    23:00 +14°C° 0 mm 1 mps 733 mmHg 50%

    30 October, Tuesday

    Time Temperature Precipitation Wind Pressure Humidity
    00:00 +14°C° 0 mm 1 mps 733 mmHg 51%
    01:00 +14°C° 0 mm 1 mps 732 mmHg 51%
    02:00 +13°C° 0 mm 1 mps 732 mmHg 51%
    03:00 +13°C° 0 mm 1 mps 732 mmHg 52%
    04:00 +13°C° 0 mm 1 mps 732 mmHg 51%
    05:00 +13°C° 0 mm 1 mps 732 mmHg 50%
    06:00 +13°C° 0 mm 2 mps 731 mmHg 49%
    07:00 +14°C° 0 mm 1 mps 731 mmHg 46%
    08:00 +16°C° 0 mm 1 mps 732 mmHg 42%
    09:00 +19°C° 0 mm 1 mps 732 mmHg 39%
    10:00 +20°C° 0 mm 1 mps 731 mmHg 37%
    11:00 +21°C° 0 mm 1 mps 731 mmHg 35%
    12:00 +22°C° 0 mm 1 mps 731 mmHg 33%
    13:00 +22°C° 0 mm 1 mps 730 mmHg 33%
    14:00 +23°C° 0 mm 1 mps 730 mmHg 32%
    15:00 +23°C° 0 mm 1 mps 730 mmHg 32%
    16:00 +21°C° 0 mm 1 mps 730 mmHg 36%
    17:00 +20°C° 0 mm 1 mps 730 mmHg 39%
    18:00 +17°C° 0 mm 2 mps 730 mmHg 43%
    19:00 +17°C° 0 mm 2 mps 730 mmHg 44%
    20:00 +16°C° 0 mm 2 mps 730 mmHg 44%
    21:00 +16°C° 0 mm 2 mps 730 mmHg 45%
    22:00 +16°C° 0 mm 2 mps 730 mmHg 45%
    23:00 +15°C° 0 mm 1 mps 730 mmHg 46%
    Show more